Weather in Mezraya

Tunisia     33°51′05″N   10°58′14″E
В апреле 2022 года жителям России запретили посещать сайт meteo.paraplan.net по решению Генеральной прокуратуры. Аудитория сайта уменьшилась в 10 раз. Владельцы сайта не видят смысла в поддержке погодного сервера в таких условиях. Сайт будет закрыт в октябре.
temp.,
°C
wind,
m/s
gust,
m/s
humid.,
%
clouds,
%
prec.,
mm/h
press.,
hPa
HPBL,
m
25 september, sun
sun2501:00+25se56603 0.0 1017551
04:00+25se45580 0.0 1015481
07:00+25sse55590 0.0 1016398
10:00+26sse664627 0.0 1017691
13:00+28se4441100 0.0 1015730
16:00+28ese54465 0.0 1013531
19:00+27ese775337 0.0 1013409
22:00+27ese7856100 0.0 1014386
26 september, mon
mon2601:00+27se676185 0.0 1014409
04:00+27sse686168 0.0 1012320
07:00+27s455154 0.0 1012207
10:00+29ssw45415 0.0 1012336
13:00+31wnw22395 0.0 1011530
16:00+31n343960 0.0 1010408
19:00+30nne224260 0.0 101191
22:00+29n114788 0.0 101216
27 september, tue
tue2701:00+29wnw465587 0.0 1011212
04:00+28wnw466199 0.0 1011329
07:00+27nnw446650 0.0 1011404
10:00+28nne546694 0.0 1012784
13:00+28ne32625 0.0 1011907
16:00+28ne5466100 0.1 1010674
19:00+26e447481 0.6 1011481
22:00+27se227117 1.2 1012144
28 september, wed
wed2801:00+26wsw116998 3.0 1012173
04:00+26ene44700 0.2 1010388
07:00+25ene437428 0.5 1011666
10:00+26nne32630 0.5 1012741
13:00+27n44540 0.5 10111402
16:00+26ne54570 0.0 1010932
19:00+26ne44580 0.0 1011694
22:00+26e44580 0.0 1011505
29 september, thu
thu2901:00+26sse56610 0.0 1011435
04:00+25sse45670 0.0 1010322
07:00+25s45690 0.0 1010344
10:00+27sse56580 0.0 1010820
13:00+28ese45500 0.0 1009834
16:00+28e655744 0.0 1007487
19:00+27e986537 0.0 1007753
22:00+27e6776100 0.0 1007567